Regional Weather Roundup
Issued by NWS Binghamton, NY

Home | Current Version | Previous Version | Text Only | Print | Product List | Glossary On
Versions: 1 2 3 4 5 6 7 8 9 10 11 12 13 14 15 16 17 18 19 20 21 22 23 24 25 26 27
000
ASUS41 KBGM 242010
RWRBGM
RWRBGM
BINGHAMTON REGIONAL WEATHER ROUNDUP
NATIONAL WEATHER SERVICE BINGHAMTON NY
400 PM EDT FRI OCT 24 2014

Note: "fair" indicates few or no clouds below 12,000 feet with no
significant weather and/or obstructions to visibility.

* = Station(s) that does not report precipitation, such as rain,
snow, etc, also no thunder or fog.

!NYZ009-015>018-022>025-036-037-044>046-055>057-062-242100
...CENTRAL NEW YORK...

CITY           SKY/WX    TMP DP  RH WIND       PRES   REMARKS
BINGHAMTON     SUNNY     58  40  51 NW12G24   29.87S
CORTLAND       FAIR      59  37  44 NW7       29.90S
DANSVILLE      PTSUNNY   59  32  36 NW13      29.94R
ELMIRA         MOSUNNY   62  32  32 NW9       29.89R
ITHACA         SUNNY     58  41  53 N12       29.91S
HAMILTON       CLEAR     59  41  51 N13G18    29.86S
MONTICELLO     SUNNY     61  39  44 NW22G35   29.80S
NORWICH        SUNNY     59  37  44 NW10G17   29.85S
PENN YAN       SUNNY     58  34  40 NW9       29.92S
ROME           CLOUDY    60  42  51 W18G25    29.85S
SIDNEY         SUNNY     63  43  48 W7        29.84S
SYRACUSE       MOSUNNY   58  40  51 NW17      29.89S
$$

!PAZ038>040-043-044-047-048-072-242100
...NORTHEAST PENNSYLVANIA...

CITY           SKY/WX    TMP DP  RH WIND       PRES   REMARKS
HAZLETON       SUNNY     63  41  45 NW9       29.87S
SCRANTON       SUNNY     65  40  39 NW15G22   29.84S
TOWANDA*       SUNNY     64  37  36 N6        29.87S
$$
&&
KEY
WCI = WIND CHILL INDEX
VSB = VISIBILITY
HX  = HEAT INDEX
$$



USA.gov is the U.S. government's official web portal to all federal, state and local government web resources and services.